When you browse on this site, cookies collect data to enhance your experience and personalize the content and advertising you see.
Visit our Privacy Policy to learn more. By continuing to use the site, you agree to this use of cookies and data.
  • In Hungary
  • List of Countries
  • For 7 days
  • Water Temperature
  • Weather Map
  • News
  • Weather Widgets
  • user-avatar
    Login

    Hourly Weather Biskupice

    Today, 7 December, Saturday

    Time Temperature Precipitation Wind Pressure Humidity
    00:00 +1°C° 0 mm 6 mps 745 mmHg 56%
    01:00 +1°C° 0 mm 6 mps 745 mmHg 58%
    02:00 +2°C° 0.4 mm 6 mps 744 mmHg 67%
    03:00 +2°C° 0.4 mm 7 mps 744 mmHg 76%
    04:00 +2°C° 0.4 mm 7 mps 743 mmHg 85%
    05:00 +2°C° 1 mm 7 mps 743 mmHg 87%
    06:00 +3°C° 1 mm 7 mps 743 mmHg 89%
    07:00 +3°C° 1 mm 7 mps 743 mmHg 91%
    08:00 +4°C° 0.1 mm 7 mps 743 mmHg 88%
    09:00 +4°C° 0.1 mm 8 mps 743 mmHg 85%
    10:00 +5°C° 0.1 mm 8 mps 742 mmHg 83%
    11:00 +5°C° 0.2 mm 8 mps 743 mmHg 83%
    12:00 +6°C° 0.2 mm 9 mps 743 mmHg 84%
    13:00 +6°C° 0.2 mm 9 mps 743 mmHg 84%
    14:00 +6°C° 0.3 mm 8 mps 744 mmHg 84%
    15:00 +6°C° 0.3 mm 8 mps 744 mmHg 84%
    16:00 +6°C° 0.3 mm 8 mps 744 mmHg 85%
    17:00 +6°C° 0.6 mm 7 mps 745 mmHg 85%
    18:00 +6°C° 0.6 mm 7 mps 746 mmHg 85%
    19:00 +5°C° 0.6 mm 7 mps 746 mmHg 85%
    20:00 +5°C° 0.3 mm 7 mps 746 mmHg 84%
    21:00 +5°C° 0.3 mm 7 mps 746 mmHg 83%
    22:00 +5°C° 0.3 mm 7 mps 747 mmHg 82%
    23:00 +5°C° 0.2 mm 7 mps 747 mmHg 83%

    Tomorrow, 8 December, Sunday

    Time Temperature Precipitation Wind Pressure Humidity
    00:00 +5°C° 0.2 mm 6 mps 747 mmHg 84%
    01:00 +5°C° 0.2 mm 6 mps 747 mmHg 85%
    02:00 +5°C° 0.1 mm 6 mps 747 mmHg 84%
    03:00 +5°C° 0.1 mm 6 mps 747 mmHg 83%
    04:00 +5°C° 0.1 mm 7 mps 747 mmHg 83%
    05:00 +5°C° 0 mm 6 mps 747 mmHg 83%
    06:00 +4°C° 0 mm 6 mps 747 mmHg 83%
    07:00 +4°C° 0 mm 6 mps 747 mmHg 83%
    08:00 +4°C° 0 mm 6 mps 746 mmHg 83%
    09:00 +4°C° 0 mm 6 mps 746 mmHg 82%
    10:00 +4°C° 0 mm 7 mps 746 mmHg 82%
    11:00 +4°C° 0 mm 7 mps 745 mmHg 79%
    12:00 +5°C° 0 mm 7 mps 744 mmHg 75%
    13:00 +6°C° 0 mm 8 mps 743 mmHg 71%
    14:00 +6°C° 0 mm 8 mps 743 mmHg 72%
    15:00 +6°C° 0 mm 8 mps 742 mmHg 72%
    16:00 +6°C° 0 mm 7 mps 741 mmHg 72%
    17:00 +6°C° 0.4 mm 8 mps 741 mmHg 76%
    18:00 +6°C° 0.4 mm 8 mps 740 mmHg 80%
    19:00 +6°C° 0.4 mm 8 mps 740 mmHg 83%
    20:00 +8°C° 0.1 mm 7 mps 740 mmHg 84%
    21:00 +8°C° 0.1 mm 7 mps 740 mmHg 84%
    22:00 +8°C° 0.1 mm 6 mps 739 mmHg 85%
    23:00 +7°C° 0.3 mm 6 mps 739 mmHg 86%

    Day after tomorrow, 9 December, Monday

    Time Temperature Precipitation Wind Pressure Humidity
    00:00 +7°C° 0.3 mm 6 mps 739 mmHg 88%
    01:00 +7°C° 0.3 mm 5 mps 739 mmHg 90%
    02:00 +7°C° 0.4 mm 5 mps 738 mmHg 87%
    03:00 +7°C° 0.4 mm 5 mps 738 mmHg 84%
    04:00 +7°C° 0.4 mm 5 mps 738 mmHg 80%
    05:00 +5°C° 0 mm 6 mps 738 mmHg 79%
    06:00 +5°C° 0 mm 6 mps 738 mmHg 78%
    07:00 +4°C° 0 mm 6 mps 738 mmHg 77%
    08:00 +4°C° 0 mm 6 mps 738 mmHg 75%
    09:00 +4°C° 0 mm 7 mps 739 mmHg 73%
    10:00 +5°C° 0 mm 7 mps 739 mmHg 71%
    11:00 +5°C° 0 mm 7 mps 738 mmHg 68%
    12:00 +5°C° 0 mm 7 mps 738 mmHg 64%
    13:00 +6°C° 0 mm 7 mps 738 mmHg 61%
    14:00 +6°C° 0 mm 7 mps 738 mmHg 63%
    15:00 +5°C° 0 mm 7 mps 737 mmHg 64%
    16:00 +5°C° 0 mm 6 mps 737 mmHg 66%
    17:00 +5°C° 0.1 mm 7 mps 737 mmHg 69%
    18:00 +5°C° 0.1 mm 7 mps 737 mmHg 72%
    19:00 +4°C° 0.1 mm 8 mps 737 mmHg 75%
    20:00 +4°C° 0.1 mm 7 mps 738 mmHg 77%
    21:00 +4°C° 0.1 mm 7 mps 738 mmHg 80%
    22:00 +4°C° 0.1 mm 6 mps 738 mmHg 82%
    23:00 +3°C° 0 mm 6 mps 739 mmHg 83%

    10 December, Tuesday

    Time Temperature Precipitation Wind Pressure Humidity
    00:00 +3°C° 0 mm 6 mps 739 mmHg 83%
    01:00 +3°C° 0 mm 6 mps 740 mmHg 83%
    02:00 +3°C° 0.1 mm 6 mps 740 mmHg 81%
    03:00 +4°C° 0.1 mm 7 mps 741 mmHg 79%
    04:00 +4°C° 0.1 mm 8 mps 742 mmHg 77%
    05:00 +2°C° 0 mm 8 mps 743 mmHg 75%
    06:00 +2°C° 0 mm 8 mps 743 mmHg 73%
    07:00 +1°C° 0 mm 8 mps 744 mmHg 71%
    08:00 +2°C° 0 mm 7 mps 745 mmHg 71%
    09:00 +2°C° 0 mm 7 mps 747 mmHg 70%
    10:00 +2°C° 0 mm 7 mps 748 mmHg 69%
    11:00 +2°C° 0.1 mm 7 mps 749 mmHg 74%
    12:00 +2°C° 0.1 mm 6 mps 750 mmHg 78%
    13:00 +2°C° 0.1 mm 6 mps 751 mmHg 83%
    14:00 +2°C° 0 mm 5 mps 752 mmHg 77%
    15:00 +1°C° 0 mm 5 mps 753 mmHg 71%
    16:00 +1°C° 0 mm 4 mps 754 mmHg 65%
    17:00 +1°C° 0 mm 3 mps 755 mmHg 67%
    18:00 0°C° 0 mm 3 mps 756 mmHg 69%
    19:00 +1°C° 0 mm 2 mps 757 mmHg 71%
    20:00 -1°C° 0 mm 2 mps 757 mmHg 72%
    21:00 -1°C° 0 mm 2 mps 757 mmHg 73%
    22:00 +1°C° 0 mm 1 mps 757 mmHg 74%
    23:00 -1°C° 0 mm 2 mps 757 mmHg 74%

    11 December, Wednesday

    Time Temperature Precipitation Wind Pressure Humidity
    00:00 -2°C° 0 mm 2 mps 757 mmHg 74%
    01:00 -2°C° 0 mm 2 mps 757 mmHg 73%
    02:00 -2°C° 0 mm 3 mps 757 mmHg 73%
    03:00 -2°C° 0 mm 3 mps 757 mmHg 73%
    04:00 -2°C° 0 mm 3 mps 756 mmHg 73%
    05:00 -3°C° 0 mm 4 mps 756 mmHg 73%
    06:00 -3°C° 0 mm 4 mps 755 mmHg 72%
    07:00 -4°C° 0 mm 5 mps 755 mmHg 71%
    08:00 -2°C° 0 mm 5 mps 755 mmHg 69%
    09:00 -3°C° 0 mm 6 mps 754 mmHg 67%
    10:00 -2°C° 0 mm 7 mps 754 mmHg 64%
    11:00 -2°C° 0 mm 6 mps 754 mmHg 61%
    12:00 -1°C° 0 mm 6 mps 753 mmHg 59%
    13:00 +1°C° 0 mm 6 mps 752 mmHg 56%
    14:00 0°C° 0 mm 5 mps 752 mmHg 59%
    15:00 0°C° 0 mm 4 mps 752 mmHg 63%
    16:00 -1°C° 0 mm 4 mps 751 mmHg 67%
    17:00 0°C° 0 mm 3 mps 751 mmHg 68%
    18:00 0°C° 0 mm 3 mps 751 mmHg 69%
    19:00 -1°C° 0 mm 3 mps 751 mmHg 70%
    20:00 -1°C° 0 mm 3 mps 751 mmHg 71%
    21:00 -1°C° 0 mm 3 mps 750 mmHg 72%
    22:00 -1°C° 0 mm 3 mps 750 mmHg 73%
    23:00 -1°C° 0 mm 3 mps 750 mmHg 73%

    12 December, Thursday

    Time Temperature Precipitation Wind Pressure Humidity
    00:00 -1°C° 0 mm 3 mps 750 mmHg 74%
    01:00 -1°C° 0 mm 3 mps 749 mmHg 74%
    02:00 -1°C° 0 mm 3 mps 749 mmHg 75%
    03:00 -1°C° 0 mm 3 mps 748 mmHg 76%
    04:00 -1°C° 0 mm 3 mps 748 mmHg 77%
    05:00 -1°C° 0 mm 3 mps 748 mmHg 78%
    06:00 -1°C° 0 mm 3 mps 748 mmHg 79%
    07:00 -1°C° 0 mm 3 mps 748 mmHg 79%
    08:00 -1°C° 0 mm 3 mps 748 mmHg 83%
    09:00 -1°C° 0 mm 4 mps 748 mmHg 86%
    10:00 -1°C° 0 mm 4 mps 748 mmHg 89%
    11:00 -1°C° 0 mm 4 mps 748 mmHg 91%
    12:00 0°C° 0 mm 4 mps 748 mmHg 93%
    13:00 0°C° 0 mm 4 mps 748 mmHg 95%
    14:00 0°C° 0 mm 4 mps 747 mmHg 94%
    15:00 0°C° 0 mm 4 mps 747 mmHg 93%
    16:00 0°C° 0 mm 4 mps 747 mmHg 92%
    17:00 0°C° 0 mm 3 mps 747 mmHg 92%
    18:00 0°C° 0 mm 3 mps 747 mmHg 92%
    19:00 -1°C° 0 mm 3 mps 746 mmHg 92%
    20:00 -1°C° 0 mm 3 mps 746 mmHg 91%
    21:00 -1°C° 0 mm 3 mps 745 mmHg 90%
    22:00 -1°C° 0 mm 3 mps 745 mmHg 89%
    23:00 -2°C° 0 mm 4 mps 744 mmHg 89%
    Show more